Dewpoint
68 70 73 72 72 71 72 72 71 71 71 71 70 69 69 69 68 66 66 66 65 64 65 66 68 69 69 68 67 67 69 69 69 69 67 67 66 68 68 68 66 63 68
69 70 72 73 72 71 71 71 71 71 71 71 70 69 69 68 69 67 65 66 67 67 69 70 69 68 68 69 68 67 66 68 68 69 67 67 67 65 65 67 67 64 66
69 70 69 72 72 72 71 71 71 71 71 70 69 69 69 69 69 69 67 65 66 67 69 71 69 68 68 67 67 66 66 66 67 67 67 66 66 67 65 63 65 66 65
70 70 70 72 72 72 72 72 72 71 71 71 71 71 70 70 70 69 69 68 66 67 69 70 69 69 68 68 66 65 65 66 66 67 64 65 65 67 68 68 64 63 65
69 70 70 71 70 70 69 69 68 67 67 67 67 68 69 70 70 70 70 71 70 69 68 68 69 70 70 69 68 68 66 66 68 66 63 64 66 65 66 67 68 65 64
60 62 64 65 63 63 62 62 62 62 62 62 63 63 64 65 64 64 65 66 67 70 70 70 70 69 70 70 70 70 69 68 69 65 65 64 64 64 65 69 68 66 65
53 56 59 62 62 62 62 62 62 61 61 60 60 61 61 61 61 61 61 62 63 65 67 69 70 70 70 70 69 70 70 69 67 66 65 66 65 67 67 68 69 68 66
45 46 51 58 60 60 60 60 59 59 59 59 59 58 58 58 58 58 58 59 60 60 61 63 65 68 69 70 69 70 70 69 67 67 66 65 66 68 67 67 69 69 69
46 46 47 47 50 56 58 58 58 58 57 57 57 56 56 56 56 56 57 58 58 58 59 60 61 62 63 66 69 70 69 68 67 67 66 66 66 67 66 66 68 69 68
47 46 46 47 47 48 50 56 56 56 56 56 56 55 54 53 55 55 56 57 57 57 57 57 58 59 59 59 62 67 68 68 67 67 67 66 68 69 69 68 66 67 68
46 47 47 47 48 48 48 50 52 53 53 53 52 53 51 51 52 52 55 56 57 57 56 56 56 56 56 56 58 62 65 66 67 67 67 67 69 69 69 69 69 68 67
45 46 47 48 49 49 48 49 49 49 49 49 49 50 51 51 52 52 53 55 56 57 56 56 56 55 53 51 52 57 57 62 66 66 66 67 69 69 69 68 68 68 68
45 46 47 48 49 49 50 49 49 49 49 51 51 51 51 51 52 52 52 52 52 54 53 53 53 52 53 52 52 52 54 56 61 64 64 66 67 68 68 67 68 68 68
45 45 47 48 49 49 50 50 50 51 50 51 52 51 51 50 51 50 50 51 51 52 52 53 54 54 54 54 53 52 52 54 56 61 63 64 66 67 66 65 65 65 66
44 45 47 48 49 49 50 51 51 51 51 51 51 51 50 50 50 49 49 49 50 51 51 51 51 53 54 54 53 53 53 53 54 58 62 63 64 64 64 64 64 65 65
43 44 47 48 49 49 50 51 51 51 51 50 50 50 50 49 49 49 48 48 48 49 49 49 49 50 52 53 51 51 53 54 53 55 58 58 59 60 61 62 62 63 63
42 45 47 48 48 48 50 51 51 51 50 49 49 49 49 49 48 48 47 47 47 48 47 47 47 47 49 50 47 49 52 51 52 53 54 55 58 60 61 62 63 63 63
42 44 47 48 48 48 49 50 49 50 50 49 48 48 48 48 48 46 47 46 46 47 46 46 46 46 47 47 46 47 48 50 51 53 54 56 57 57 57 58 59 60 60
42 44 47 47 46 47 48 49 49 49 49 48 48 47 48 47 47 46 46 46 45 45 45 45 44 45 46 45 45 47 50 52 51 48 50 53 54 53 53 54 53 54 56
42 44 46 46 46 47 48 48 48 48 48 49 47 47 47 46 46 44 45 45 45 45 44 44 43 44 45 45 45 47 50 49 48 46 47 50 52 50 49 50 50 49 51
42 43 44 45 46 47 47 46 46 46 48 48 48 47 47 46 45 43 43 44 45 44 44 44 44 43 43 44 45 47 49 48 46 45 47 49 50 47 44 43 43 45 46
41 42 44 44 44 46 46 46 48 48 47 48 48 47 47 46 45 42 42 42 43 43 43 44 45 44 43 44 44 46 43 45 44 45 46 45 46 47 43 40 38 37 43
41 42 42 44 45 46 46 47 47 46 46 45 45 45 45 46 45 43 42 41 41 42 40 42 44 45 44 44 44 44 42 41 39 45 45 45 45 45 44 41 36 35 37
42 43 42 44 45 45 46 46 44 43 42 44 45 45 44 43 44 43 42 41 41 41 40 41 42 43 45 44 43 41 43 44 40 38 44 44 44 43 42 38 34 32 34
43 43 43 43 44 45 46 45 44 43 43 44 44 44 42 41 42 42 41 40 39 40 40 39 39 42 43 45 44 43 42 42 44 41 37 41 40 43 42 36 33 32 32
43 42 43 43 43 44 45 44 44 44 43 42 42 42 41 40 40 40 41 40 38 38 38 38 37 42 41 43 42 40 39 40 40 40 39 37 37 38 42 36 34 32 31
Lifted_Index
-1 -1 -2 -2 -2 -2 -2 -2 -2 -2 -2 -1 -1 -0 -0 -0 -0 1 1 1 1 1 0 -0 -1 -1 -1 -0 0 0 0 -0 -0 0 1 2 2 1 1 1 2 2 1
-1 -1 -2 -2 -2 -2 -2 -2 -2 -2 -2 -1 -1 -1 -0 -0 -0 0 1 1 1 0 -0 -1 -1 -1 -1 -0 0 1 1 0 0 1 1 2 2 1 1 1 2 2 2
-1 -2 -2 -2 -2 -2 -2 -2 -2 -2 -2 -2 -1 -1 -1 -1 -1 -1 -0 0 0 -0 -1 -1 -1 -1 -0 0 1 1 1 1 1 1 1 1 1 1 1 2 2 2 2
-2 -2 -2 -2 -2 -2 -2 -2 -2 -2 -2 -1 -1 -1 -1 -1 -1 -1 -1 -0 -0 -0 -0 -1 -1 -1 -0 0 1 1 1 1 1 2 2 1 1 1 1 1 2 2 2
-1 -2 -2 -2 -1 -1 -1 -1 -1 -1 -0 -0 -0 -0 -0 -1 -1 -1 -1 -1 -0 -0 -0 -0 -0 -1 -1 -0 0 1 1 1 1 2 2 2 2 2 1 0 1 2 2
-1 -1 -1 -1 -1 -1 -1 -0 0 1 1 1 2 1 1 1 1 1 1 1 0 0 -0 -0 -1 -1 -1 -1 -1 -0 0 0 1 1 2 2 2 2 1 0 -0 1 1
-1 -1 -1 -1 -1 -0 0 1 2 3 3 4 4 4 4 4 4 3 3 3 2 2 1 -0 -1 -1 -1 -1 -1 -1 -1 -0 0 1 1 2 2 2 1 0 -1 -0 1
-0 -0 -0 0 1 2 3 5 5 6 6 7 7 7 8 7 7 7 6 6 5 5 3 2 1 -0 -1 -1 -1 -1 -1 -1 -0 -0 1 1 1 1 1 0 -0 -1 -0
0 1 1 3 5 7 8 8 8 8 9 9 10 10 11 11 10 10 9 9 8 7 7 5 4 3 2 1 -0 -1 -1 -1 -1 -1 -0 0 1 0 0 0 -0 -1 -1
2 3 5 7 10 11 12 11 11 10 11 11 11 12 12 12 12 11 11 10 9 9 9 8 7 6 6 4 3 2 0 -1 -1 -1 -1 -0 -0 -1 -1 -1 -1 -1 -1
4 6 9 11 13 13 13 13 13 12 12 13 13 13 13 13 12 12 11 11 10 10 10 10 10 9 9 8 7 5 3 1 -0 -1 -1 -0 -1 -1 -2 -1 -1 -1 -1
7 9 11 13 13 14 14 13 13 13 13 13 13 13 12 12 12 12 12 11 11 11 11 11 11 11 11 10 9 8 6 3 1 0 -0 0 -0 -1 -1 -2 -2 -2 -1
9 11 12 13 13 13 13 13 13 13 12 12 12 12 12 12 12 12 12 12 12 11 11 11 11 11 11 11 10 9 8 6 4 2 1 1 0 -0 -1 -1 -1 -1 -1
10 11 12 13 13 13 13 13 13 12 12 12 12 12 12 13 13 13 13 13 12 12 11 11 11 10 10 10 10 10 9 8 6 4 2 1 1 0 -0 -0 -0 -1 -1
11 12 13 13 13 13 13 13 12 12 12 12 13 13 13 13 13 13 13 13 13 13 12 11 11 10 10 10 10 9 9 8 7 5 4 3 2 2 1 1 0 -0 -0
11 12 13 13 13 13 13 13 12 12 12 13 13 14 14 14 14 14 13 13 13 13 13 12 12 11 11 10 9 9 8 8 8 7 6 5 5 4 3 2 2 1 1
12 12 13 13 13 13 13 13 13 13 13 14 14 14 14 14 14 14 14 14 14 14 13 13 13 12 11 10 10 9 8 8 8 8 7 7 6 6 5 4 3 3 2
12 12 13 13 13 14 14 14 14 14 14 14 14 14 14 15 15 15 15 15 15 14 14 14 13 13 12 11 11 10 9 8 8 8 8 8 7 7 7 6 5 5 4
12 12 12 13 13 13 14 14 14 14 14 14 14 14 15 15 15 15 15 15 15 15 15 14 14 13 13 12 11 10 9 8 8 8 8 8 8 8 8 7 7 6 6
12 12 12 12 13 13 13 14 14 14 14 14 14 14 15 15 15 15 16 16 15 15 15 14 14 14 13 13 12 10 9 8 8 9 9 9 9 9 8 8 8 8 8
11 12 12 12 12 13 13 14 14 14 14 14 14 14 14 15 15 15 15 16 15 15 15 15 14 14 14 13 12 11 10 9 9 9 10 10 10 10 10 10 10 10 9
11 12 12 12 12 13 13 13 13 13 13 13 13 14 14 14 14 15 15 15 15 15 15 15 15 14 14 14 13 12 11 11 11 11 11 11 11 11 11 12 12 11 11
11 12 12 12 12 13 13 13 13 13 13 13 13 13 14 14 14 14 15 15 15 15 15 15 16 15 15 14 14 14 13 13 12 12 12 12 12 12 12 13 13 13 13
11 12 12 12 12 13 13 13 13 13 13 13 13 13 14 14 14 14 15 15 15 15 15 16 16 16 16 15 15 15 14 14 13 13 13 14 14 14 14 14 14 14 14
11 12 12 12 12 12 12 13 13 13 13 13 13 13 14 14 14 14 15 15 15 15 15 16 16 17 17 16 16 16 15 15 14 14 14 14 15 15 16 16 16 16 16
12 12 12 12 12 12 12 12 13 13 13 13 13 13 14 14 14 14 15 15 15 15 16 16 16 17 17 17 17 17 16 15 15 14 14 15 16 16 17 17 17 17 17